Location: Coupvray
(48.8929°N, 2.7967°E)
Time: 09:47:54
(UTC+00:00)

Altair 2 - Pass Details

Date: 21 January 2021
Orbit: 837 x 949 km, 90.2° (Epoch: 26 February)

Event Time Altitude Azimuth Distance (km) Brightness Sun altitude
Rises 06:03:14 0° 2° (N) 3,443 10.8 -14.3°
Reaches altitude 10° 06:05:38 10° 4° (N) 2,515 10.1 -13.9°
Maximum altitude 06:11:17 77° 91° (E) 908 8.0 -13.0°
Drops below altitude 10° 06:17:05 10° 178° (S) 2,571 10.5 -12.1°
Sets 06:19:33 0° 180° (S) 3,525 11.2 -11.7°
